This is the latest recevied weather packets stored in our database for station/object SP1BMW-13. If no packets are shown the sender has not sent any weather packets the latest 10 day(s).
| Time | Temp. | Humidity | Pressure | Rain* | Wind** | Luminosity | Snow |
|---|---|---|---|---|---|---|---|
| 1788090039 | 26.67° C | 49% | 1007.6 hPa | 0 mm | 0.45 m/s, 282° | 725 W/m² | - |
| 1788089977 | 26.67° C | 48% | 1007.6 hPa | 0 mm | 1.34 m/s, 143° | 743 W/m² | - |
| 1788089917 | 26.67° C | 49% | 1007.7 hPa | 0 mm | 1.34 m/s, 340° | 766 W/m² | - |
| 1788089857 | 26.67° C | 48% | 1007.6 hPa | 0 mm | 0 m/s | 724 W/m² | - |
| 1788089797 | 26.67° C | 48% | 1007.5 hPa | 0 mm | 1.79 m/s, 261° | 216 W/m² | - |
| 1788089737 | 26.67° C | 48% | 1007.6 hPa | 0 mm | 0.89 m/s, 228° | 425 W/m² | - |
| 1788089677 | 27.22° C | 49% | 1007.5 hPa | 0 mm | 1.79 m/s, 72° | 782 W/m² | - |
| 1788089617 | 27.22° C | 47% | 1007.5 hPa | 0 mm | 1.34 m/s, 225° | 196 W/m² | - |
| 1788089560 | 27.22° C | 46% | 1007.5 hPa | 0 mm | 1.79 m/s, 150° | 667 W/m² | - |
| 1788089497 | 27.22° C | 46% | 1007.5 hPa | 0 mm | 1.79 m/s, 67° | 185 W/m² | - |
| 1788089437 | 27.22° C | 47% | 1007.5 hPa | 0 mm | 0.89 m/s, 215° | 191 W/m² | - |
| 1788089377 | 27.22° C | 47% | 1007.4 hPa | 0 mm | 1.34 m/s, 238° | 683 W/m² | - |
| 1788089323 | 27.22° C | 47% | 1007.5 hPa | 0 mm | 1.34 m/s, 154° | 538 W/m² | - |
| 1788089257 | 27.22° C | 47% | 1007.7 hPa | 0 mm | 1.34 m/s, 218° | 662 W/m² | - |
| 1788089197 | 26.67° C | 47% | 1007.5 hPa | 0 mm | 2.68 m/s, 197° | 656 W/m² | - |
| 1788089137 | 26.67° C | 49% | 1007.5 hPa | 0 mm | 0 m/s | 681 W/m² | - |
| 1788089077 | 26.67° C | 49% | 1007.6 hPa | 0 mm | 0.45 m/s, 80° | 688 W/m² | - |
| 1788089017 | 26.11° C | 49% | 1007.5 hPa | 0 mm | 1.34 m/s, 140° | 722 W/m² | - |
| 1788088957 | 25.56° C | 51% | 1007.5 hPa | 0 mm | 0 m/s | 198 W/m² | - |
| 1788088897 | 25.56° C | 51% | 1007.5 hPa | 0 mm | 0.89 m/s, 119° | 719 W/m² | - |
| 1788088837 | 25.56° C | 51% | 1007.7 hPa | 0 mm | 1.79 m/s, 168° | 730 W/m² | - |
| 1788088780 | 25.56° C | 51% | 1007.7 hPa | 0 mm | 1.79 m/s, 261° | 752 W/m² | - |
| 1788088717 | 25° C | 53% | 1007.5 hPa | 0 mm | 1.79 m/s, 194° | 181 W/m² | - |
| 1788088657 | 25° C | 55% | 1007.5 hPa | 0 mm | 0.89 m/s, 125° | 662 W/m² | - |
| 1788088597 | 24.44° C | 55% | 1007.3 hPa | 0 mm | 0.45 m/s, 309° | 738 W/m² | - |
* Rain latest hour (hover to see other rain measurements)
** Current wind speed in m/s (hover to see current wind gust speed)